Regional Weather Roundup
Issued by NWS

Home | Current Version | Previous Version | Text Only | Print | Product List | Glossary On
Versions: 1 2 3 4 5 6 7 8 9 10 11 12 13 14 15 16 17 18 19 20 21 22 23 24 25
000
ASUS45 KCYS 291210
RWRWY

WYOMING REGIONAL WEATHER ROUNDUP
NATIONAL WEATHER SERVICE CHEYENNE WY
600 AM MDT THU JUN 29 2017

NOTE:  "FAIR" INDICATES FEW OR NO CLOUDS BELOW 12,000 FEET
WITH NO SIGNIFICANT WEATHER AND/OR OBSTRUCTIONS TO VISIBILITY.

WYZ001-291300-
YELLOWSTONE NATIONAL PARK

CITY           SKY/WX    TMP DP  RH WIND       PRES   REMARKS
LK YELLOWSTONE   N/A     32  32 100 CALM      30.16R
6HR MIN TEMP:  32; 6HR MAX TEMP:  40;

W YELLOWSTONE  NOT AVBL

$$
WYZ002>013-054>058-071-098>099-291300-
NORTHERN WYOMING

CITY           SKY/WX    TMP DP  RH WIND       PRES   REMARKS
JACKSON        MOCLDY    39  39 100 NW3       30.11R
CODY           FAIR      50  39  66 N5        30.04R
GREYBULL       FAIR      48  46  93 W5        29.97R
6HR MIN TEMP:  48; 6HR MAX TEMP:  57;

WORLAND        FAIR      44  44 100 SW6       29.98R
6HR MIN TEMP:  44; 6HR MAX TEMP:  53;

SHERIDAN       FAIR      44  41  89 CALM      29.94R
6HR MIN TEMP:  44; 6HR MAX TEMP:  55;

BUFFALO        FAIR      49  42  77 NW8       29.97R
6HR MIN TEMP:  47; 6HR MAX TEMP:  54; 6HR PCP: TRACE;

GILLETTE       FAIR      51  48  89 NW7       29.95R
6HR MIN TEMP:  49; 6HR MAX TEMP:  57; 6HR PCP:  0.19;

NEWCASTLE      PTSUNNY   54  46  76 N8        29.90S

$$
WYZ014>020-022>026-101>103-291300-
CENTRAL WYOMING

CITY           SKY/WX    TMP DP  RH WIND       PRES   REMARKS
BIG PINEY      FAIR      31  31 100 W3        30.12R
6HR MIN TEMP:  31; 6HR MAX TEMP:  41;

PINEDALE       FAIR      34  34 100 NW12      30.11S WCI  25
DUBOIS         FAIR      37  32  81 NW5       30.08S WCI  34
LANDER         FAIR      42  35  76 CALM      30.03R
6HR MIN TEMP:  42; 6HR MAX TEMP:  54;

RIVERTON       FAIR      46  39  76 SW9       30.02R
6HR MIN TEMP:  43; 6HR MAX TEMP:  52;

CASPER         FAIR      46  44  93 W9        30.00R
6HR MIN TEMP:  43; 6HR MAX TEMP:  54;

DOUGLAS        FAIR      47  44  90 NW3       29.98R
6HR MIN TEMP:  46; 6HR MAX TEMP:  57;


$$
WYZ021-027>030-104>119-291300-
SOUTHERN WYOMING

CITY           SKY/WX    TMP DP  RH WIND       PRES   REMARKS
EVANSTON       FAIR      48  40  73 S5        30.12R
6HR MIN TEMP:  46; 6HR MAX TEMP:  57;

KEMMERER         N/A     45  36  70 CALM      30.11R
FORT BRIDGER   FAIR      49  36  59 SW10      30.13R
ROCK SPRINGS   FAIR      50  34  54 CALM      30.09R
6HR MIN TEMP:  47; 6HR MAX TEMP:  54;

DIXON          FAIR      41  32  69 CALM      30.12S
RAWLINS        FAIR      49  32  52 SW15      30.07R
6HR MIN TEMP:  47; 6HR MAX TEMP:  55;

SARATOGA       PTSUNNY   43  34  70 S8        30.10S
LARAMIE        FAIR      44  34  67 SW8       30.07R
6HR MIN TEMP:  42; 6HR MAX TEMP:  54;

CHEYENNE       MOCLDY    54  37  52 W9        30.00R
6HR MIN TEMP:  52; 6HR MAX TEMP:  68;

TORRINGTON     FAIR      55  47  74 W5        29.90R
6HR MIN TEMP:  53; 6HR MAX TEMP:  70;

PINE BLUFFS    FAIR      48  45  87 CALM      29.95R

$$




USA.gov is the U.S. government's official web portal to all federal, state and local government web resources and services.